Location: ????????
(55.7667°N, 37.4833°E)
Time: 05:58:48
(UTC+00:00)

Cosmos 2181 Rocket - Pass Details

Date: 19 May 2025
Orbit: 952 x 1013 km, 82.9° (Epoch: 15 June)

Event Time Altitude Azimuth Distance (km) Brightness Sun altitude
Exits shadow 19:13:55 - 178° (S) 3,025 6.0 -9.2°
Reaches altitude 10° 19:14:42 10° 178° (S) 2,732 5.8 -9.3°
Maximum altitude 19:20:56 70° 96° (E) 1,057 4.1 -9.7°
Drops below altitude 10° 19:27:18 10° 15° (NNE) 2,791 7.1 -10.2°
Sets 19:29:52 0° 13° (NNE) 3,751 7.9 -10.3°
